Location: Newark
(60.6561°N, 46.5772°E)
Time: 11:33:25
(UTC+00:00)

Vanguard 1 - Visible Passes

Search period start: 16 October 2019 00:00
Search period end: 26 October 2019 00:00
Orbit: 653 x 3830 km, 34.3° (Epoch: 14 October)

Date Brightness Start Highest point End Pass type
(mag) Time Alt. Az. Time Alt. Az. Time Alt. Az.
16 Oct 12.9 17:10:33 10° SSW 17:16:37 20° SSE 17:16:37 20° SSE visible
16 Oct 13.3 19:27:44 10° SW 19:29:19 14° SW 19:29:19 14° SW visible
17 Oct 12.9 17:30:27 10° SSW 17:36:12 20° S 17:36:12 20° S visible
17 Oct 13.4 19:48:23 10° SW 19:48:54 11° SW 19:48:54 11° SW visible
18 Oct 13.0 15:36:38 10° SSE 15:40:35 12° SE 15:43:05 11° SE visible
18 Oct 12.9 17:50:35 10° SSW 17:55:46 20° S 17:55:46 20° S visible
19 Oct 12.9 15:55:26 10° S 16:00:37 14° SSE 16:02:37 14° SE visible
19 Oct 12.9 18:10:54 10° SW 18:15:18 19° SSW 18:15:18 19° SSW visible
20 Oct 12.8 16:14:53 10° S 16:20:44 16° SSE 16:22:09 16° SSE visible
20 Oct 13.0 18:31:25 10° SW 18:34:50 17° SSW 18:34:50 17° SSW visible
21 Oct 12.8 16:34:44 10° SSW 16:40:57 17° SSE 16:41:40 17° SSE visible
21 Oct 13.1 18:52:08 10° SW 18:54:22 15° SW 18:54:22 15° SW visible
22 Oct 12.8 16:54:51 10° SSW 17:01:12 18° SSE 17:01:12 18° SSE visible
22 Oct 13.2 19:13:06 10° SW 19:13:53 11° SW 19:13:53 11° SW visible
23 Oct 12.8 17:15:13 10° SSW 17:20:44 17° S 17:20:44 17° S visible
24 Oct 12.8 15:20:25 10° S 15:23:08 11° SSE 15:26:17 10° SE visible
24 Oct 12.9 17:35:48 10° SSW 17:40:17 16° S 17:40:17 16° S visible
25 Oct 12.8 15:39:57 10° S 15:43:23 12° SSE 15:47:09 10° SE visible
25 Oct 13.0 17:56:41 10° SW 17:59:50 14° SSW 17:59:50 14° SSW visible
